GW0772 Weather Reports


time (UTC)temp
C
wind
direction
speed
KPH
gust
KPH
rain 1hr
cm
rain 24hr
cm
rain mn
cm
humidity
%
barometer
mb
20260906134204 26 352 1.6 4.8 0.00 0.00 0.00 86 1013.3
20260906133204 26 58 3.2 9.7 0.00 0.00 0.00 87 1013.4
20260906132705 26 60 4.8 9.7 0.00 0.00 0.00 87 1013.3
20260906132204 26 354 1.6 9.7 0.00 0.00 0.00 88 1013.3
20260906131705 26 358 3.2 4.8 0.00 0.00 0.00 89 1013.3
20260906131204 26 325 3.2 8.0 0.00 0.00 0.00 89 1013.2
20260906130704 25 54 1.6 4.8 0.00 0.00 0.00 89 1013.2
20260906130205 25 60 4.8 9.7 0.00 0.00 0.00 90 1013.2
20260906125704 25 50 1.6 4.8 0.00 0.00 0.00 90 1013.2
20260906125204 25 39 4.8 8.0 0.00 0.00 0.00 90 1013.2
20260906124705 25 55 1.6 8.0 0.00 0.00 0.00 91 1013.1
20260906124204 25 34 3.2 4.8 0.00 0.00 0.00 91 1013.1
20260906123704 25 51 0.0 4.8 0.00 0.00 0.00 92 1013.1
20260906123204 25 350 1.6 3.2 0.00 0.00 0.00 92 1013.1
20260906122704 25 344 1.6 3.2 0.00 0.00 0.00 92 1013.0
20260906122204 25 55 1.6 4.8 0.00 0.00 0.00 93 1013.1
20260906121704 24 55 1.6 4.8 0.00 0.00 0.00 93 1012.9
20260906120204 24 48 1.6 3.2 0.00 0.00 0.00 94 1012.8
20260906115704 24 48 1.6 3.2 0.00 0.00 0.00 94 1012.6
20260906115205 24 48 0.0 3.2 0.00 0.00 0.00 94 1012.6
20260906114704 24 48 0.0 1.6 0.00 0.00 0.00 94 1012.5
20260906114204 24 48 1.6 3.2 0.00 0.00 0.00 93 1012.5
20260906113705 24 48 0.0 0.0 0.00 0.00 0.00 93 1012.4
20260906112704 24 48 0.0 0.0 0.00 0.00 0.00 93 1012.2
20260906112204 24 48 0.0 0.0 0.00 0.00 0.00 93 1012.2
20260906111704 24 48 0.0 0.0 0.00 0.00 0.00 93 1012.2
20260906111204 24 48 0.0 1.6 0.00 0.00 0.00 93 1012.1
20260906110704 24 48 0.0 1.6 0.00 0.00 0.00 93 1012.0
20260906110204 24 48 0.0 1.6 0.00 0.00 0.00 93 1012.0
20260906105704 24 48 0.0 1.6 0.00 0.00 0.00 93 1012.0
20260906105204 24 48 1.6 3.2 0.00 0.00 0.00 93 1012.0
20260906104704 24 67 0.0 3.2 0.00 0.00 0.00 93 1012.0
20260906104204 24 56 1.6 4.8 0.00 0.00 0.00 93 1011.9
20260906103704 24 34 0.0 1.6 0.00 0.00 0.00 93 1012.0
20260906103204 24 34 1.6 3.2 0.00 0.00 0.00 92 1011.8
20260906102704 24 34 0.0 1.6 0.00 0.00 0.00 92 1011.8
20260906102205 24 34 1.6 1.6 0.00 0.00 0.00 92 1011.7
20260906101204 24 34 1.6 1.6 0.00 0.00 0.00 91 1011.6
20260906100704 24 34 1.6 3.2 0.00 0.00 0.00 91 1011.5
20260906100204 24 34 1.6 1.6 0.00 0.00 0.00 91 1011.4
20260906095704 24 34 0.0 1.6 0.00 0.00 0.00 90 1011.3
20260906095204 24 34 0.0 1.6 0.00 0.00 0.00 90 1011.3
20260906094704 24 34 0.0 1.6 0.00 0.00 0.00 89 1011.2
20260906094204 24 34 0.0 1.6 0.00 0.00 0.00 90 1011.2
20260906093204 24 34 1.6 3.2 0.00 0.00 0.00 89 1011.1
20260906092704 24 34 0.0 3.2 0.00 0.00 0.00 89 1011.1
20260906092204 24 34 1.6 3.2 0.00 0.00 0.00 89 1011.1
20260906091704 24 34 1.6 3.2 0.00 0.00 0.00 88 1011.0
20260906090704 25 34 1.6 1.6 0.00 0.00 0.00 88 1010.9
20260906090204 25 34 0.0 1.6 0.00 0.00 0.00 88 1010.9
20260906085704 25 34 0.0 1.6 0.00 0.00 0.00 87 1010.9
20260906085204 25 34 1.6 1.6 0.00 0.00 0.00 87 1010.9
20260906084704 25 34 0.0 1.6 0.00 0.00 0.00 87 1010.9
20260906084204 25 34 0.0 1.6 0.00 0.00 0.00 86 1011.0
20260906083704 25 34 0.0 0.0 0.00 0.00 0.00 86 1011.0
20260906083204 25 34 0.0 1.6 0.00 0.00 0.00 86 1010.9
20260906082704 25 34 0.0 0.0 0.00 0.00 0.00 86 1010.9
20260906082204 25 34 0.0 1.6 0.00 0.00 0.00 85 1010.9
20260906081704 25 34 0.0 0.0 0.00 0.00 0.00 85 1010.9
20260906081205 25 34 0.0 1.6 0.00 0.00 0.00 85 1010.9
20260906080704 25 34 0.0 0.0 0.00 0.00 0.00 84 1010.9
20260906080204 25 34 0.0 0.0 0.00 0.00 0.00 84 1010.8
20260906075704 25 34 0.0 0.0 0.00 0.00 0.00 84 1010.8
20260906075204 25 34 0.0 1.6 0.00 0.00 0.00 83 1010.8
20260906074704 25 34 1.6 3.2 0.00 0.00 0.00 83 1010.8
20260906074204 25 34 1.6 4.8 0.00 0.00 0.00 84 1010.8
20260906073704 25 61 1.6 4.8 0.00 0.00 0.00 84 1011.0
20260906073204 25 51 3.2 4.8 0.00 0.00 0.00 85 1010.9
20260906072704 24 64 1.6 3.2 0.00 0.00 0.00 87 1010.9
20260906072204 24 46 1.6 3.2 0.00 0.00 0.00 87 1011.0
20260906071704 24 357 0.0 1.6 0.00 0.00 0.00 88 1011.1
20260906071204 24 355 0.0 1.6 0.00 0.00 0.00 89 1011.1
20260906070704 24 355 0.0 1.6 0.00 0.00 0.00 89 1011.1
20260906070204 24 355 0.0 0.0 0.00 0.00 0.00 89 1011.1
20260906065704 24 355 0.0 0.0 0.00 0.00 0.00 89 1011.2
20260906065204 24 355 0.0 0.0 0.00 0.00 0.00 89 1011.2
20260906064203 24 355 0.0 1.6 0.00 0.00 0.00 89 1011.3
20260906063704 25 355 0.0 1.6 0.00 0.00 0.00 88 1011.4
20260906062704 25 355 0.0 1.6 0.00 0.00 0.00 88 1011.4
20260906062204 25 355 0.0 0.0 0.00 0.00 0.00 88 1011.4
20260906060705 25 355 1.6 3.2 0.00 0.00 0.00 87 1011.3
20260906060204 25 355 0.0 0.0 0.00 0.00 0.00 87 1011.5
20260906055704 25 355 0.0 0.0 0.00 0.00 0.00 87 1011.4
20260906054204 25 355 0.0 0.0 0.00 0.00 0.00 87 1011.4
20260906053704 25 355 0.0 0.0 0.00 0.00 0.00 87 1011.5
20260906053205 25 355 0.0 0.0 0.00 0.00 0.00 87 1011.5
20260906052703 25 355 0.0 0.0 0.00 0.00 0.00 87 1011.5
20260906052204 25 355 0.0 0.0 0.00 0.00 0.00 87 1011.5
20260906051704 25 355 0.0 0.0 0.00 0.00 0.00 87 1011.5
20260906051204 25 355 0.0 0.0 0.00 0.00 0.00 87 1011.5
20260906050704 25 355 0.0 0.0 0.00 0.00 0.00 87 1011.4
20260906050204 25 355 0.0 0.0 0.00 0.00 0.00 87 1011.4
20260906045705 25 355 0.0 0.0 0.00 0.00 0.00 87 1011.4
20260906043704 25 355 0.0 0.0 0.00 0.00 0.00 86 1011.3
20260906043204 25 355 0.0 0.0 0.00 0.00 0.00 85 1011.3
20260906042204 25 355 0.0 0.0 0.00 0.00 0.00 85 1011.3
20260906041704 25 355 0.0 0.0 0.00 0.00 0.00 85 1011.2
20260906041204 25 355 0.0 0.0 0.00 0.00 0.00 85 1011.2
20260906040204 26 355 0.0 0.0 0.00 0.00 0.00 84 1011.1
20260906035704 26 355 0.0 0.0 0.00 0.00 0.00 84 1011.0
20260906035204 26 355 0.0 0.0 0.00 0.00 0.00 84 1011.0
20260906034204 26 355 0.0 0.0 0.00 0.00 0.00 83 1010.8
20260906033704 26 355 0.0 0.0 0.00 0.00 0.00 83 1010.9
20260906033204 26 355 0.0 0.0 0.00 0.00 0.00 83 1010.8
20260906032204 26 0 0.0 0.0 0.00 0.00 0.00 82 1010.8
20260906031705 26 0 0.0 0.0 0.00 0.00 0.00 82 1010.8
20260906031204 26 0 0.0 0.0 0.00 0.00 0.00 82 1010.8
20260906030204 26 0 0.0 1.6 0.00 0.00 0.00 81 1010.8
20260906025705 26 0 0.0 0.0 0.00 0.00 0.00 81 1010.8
20260906025204 26 0 0.0 1.6 0.00 0.00 0.00 81 1010.8
20260906024704 26 0 0.0 1.6 0.00 0.00 0.00 81 1010.8
20260906024204 27 0 0.0 0.0 0.00 0.00 0.00 80 1010.8
20260906023204 27 0 0.0 1.6 0.00 0.00 0.00 78 1010.8
20260906022704 27 0 0.0 0.0 0.00 0.00 0.00 78 1010.7
20260906022204 27 0 0.0 0.0 0.00 0.00 0.00 77 1010.6
20260906021704 27 0 0.0 0.0 0.00 0.00 0.00 77 1010.6
20260906021203 27 0 0.0 0.0 0.00 0.00 0.00 76 1010.5
20260906020705 27 0 0.0 0.0 0.00 0.00 0.00 76 1010.4
20260906020204 27 0 0.0 0.0 0.00 0.00 0.00 75 1010.3
20260906015204 28 0 0.0 0.0 0.00 0.00 0.00 74 1010.3
20260906014704 28 0 0.0 1.6 0.00 0.00 0.00 73 1010.2
20260906014204 28 0 0.0 0.0 0.00 0.00 0.00 73 1010.2
20260906013704 28 0 0.0 0.0 0.00 0.00 0.00 73 1010.1
20260906013205 28 0 0.0 0.0 0.00 0.00 0.00 71 1010.1
20260906012704 28 0 0.0 1.6 0.00 0.00 0.00 72 1010.1
20260906011204 29 0 0.0 0.0 0.00 0.00 0.00 69 1009.8
20260906010704 29 0 0.0 0.0 0.00 0.00 0.00 68 1009.8
20260906010204 30 0 0.0 0.0 0.00 0.00 0.00 67 1009.6
20260906005704 30 0 0.0 0.0 0.00 0.00 0.00 66 1009.5
20260906005204 30 0 0.0 0.0 0.00 0.00 0.00 65 1009.5
20260906004704 30 0 0.0 1.6 0.00 0.00 0.00 66 1009.5
20260906004205 30 0 0.0 1.6 0.00 0.00 0.00 65 1009.5
20260906003704 30 0 0.0 3.2 0.00 0.00 0.00 64 1009.4
20260906003204 31 283 0.0 1.6 0.00 0.00 0.00 63 1009.4
20260906002704 31 283 0.0 4.8 0.00 0.00 0.00 63 1009.4
20260906001704 31 303 1.6 3.2 0.00 0.00 0.00 62 1009.7
20260906001204 31 285 0.0 1.6 0.00 0.00 0.00 62 1009.7
20260906000704 31 285 0.0 0.0 0.00 0.00 0.00 60 1009.8
20260906000205 32 285 0.0 0.0 0.00 0.00 0.00 61 1009.9
20260905235705 32 285 0.0 0.0 0.00 0.00 0.00 59 1009.9
20260905235204 32 285 0.0 0.0 0.00 0.00 0.00 60 1010.0
20260905234204 32 285 1.6 4.8 0.00 0.00 0.00 58 1010.0
20260905233704 32 285 3.2 4.8 0.00 0.00 0.00 57 1010.0
20260905233204 32 310 1.6 4.8 0.00 0.00 0.00 58 1009.9
20260905232705 32 294 3.2 9.7 0.00 0.00 0.00 58 1010.1
20260905232204 32 306 4.8 8.0 0.00 0.00 0.00 57 1010.1
20260905231704 32 281 3.2 4.8 0.00 0.00 0.00 58 1010.1
20260905231204 32 307 3.2 4.8 0.00 0.00 0.00 57 1010.2
20260905230704 32 300 4.8 8.0 0.00 0.00 0.00 57 1010.2
20260905230204 32 294 1.6 4.8 0.00 0.00 0.00 59 1010.3
20260905225704 31 304 3.2 4.8 0.00 0.00 0.00 59 1010.3
20260905225205 31 249 3.2 9.7 0.00 0.00 0.00 59 1010.1
20260905224704 31 287 3.2 8.0 0.00 0.00 0.00 60 1010.1
20260905224204 31 270 1.6 4.8 0.00 0.00 0.00 61 1010.2
20260905223704 31 315 6.4 11.3 0.00 0.00 0.00 61 1010.3
20260905223204 31 309 6.4 11.3 0.00 0.00 0.00 61 1010.2
20260905222704 31 293 3.2 12.9 0.00 0.00 0.00 61 1010.2
20260905222203 31 287 4.8 9.7 0.00 0.00 0.00 61 1010.3
20260905221704 31 287 3.2 9.7 0.00 0.00 0.00 61 1010.0
20260905220704 31 261 3.2 4.8 0.00 0.00 0.00 63 1010.3
20260905220204 31 294 0.0 4.8 0.00 0.00 0.00 61 1010.2
20260905215705 31 294 0.0 1.6 0.00 0.00 0.00 61 1010.4
20260905215204 31 293 0.0 1.6 0.00 0.00 0.00 60 1010.3
20260905214204 31 53 1.6 4.8 0.00 0.00 0.00 59 1010.1
20260905213704 32 65 3.2 8.0 0.00 0.00 0.00 58 1010.3
20260905213204 32 66 3.2 4.8 0.00 0.00 0.00 57 1010.6
20260905212704 32 317 3.2 11.3 0.00 0.00 0.00 55 1010.6
20260905212205 32 288 3.2 4.8 0.00 0.00 0.00 55 1010.7
20260905210704 33 299 8.0 14.5 0.00 0.00 0.00 53 1010.5
20260905205704 33 300 8.0 12.9 0.00 0.00 0.00 53 1010.3
20260905205204 34 303 8.0 12.9 0.00 0.00 0.00 52 1010.4
20260905204705 35 275 4.8 14.5 0.00 0.00 0.00 51 1010.3
20260905204204 35 292 8.0 12.9 0.00 0.00 0.00 52 1010.6
20260905203704 35 304 3.2 4.8 0.00 0.00 0.00 54 1010.5
20260905203204 36 235 1.6 3.2 0.00 0.00 0.00 54 1010.5
20260905202704 36 235 1.6 3.2 0.00 0.00 0.00 51 1010.4
20260905202204 36 230 1.6 4.8 0.00 0.00 0.00 49 1010.2
20260905201204 36 293 0.0 1.6 0.00 0.00 0.00 50 1010.5
20260905200704 36 293 1.6 3.2 0.00 0.00 0.00 51 1010.5
20260905200204 36 293 0.0 3.2 0.00 0.00 0.00 48 1010.4
20260905195204 36 294 1.6 4.8 0.00 0.00 0.00 49 1010.7
20260905194705 37 238 1.6 3.2 0.00 0.00 0.00 47 1010.8
20260905193704 37 236 1.6 3.2 0.00 0.00 0.00 44 1010.9
20260905193205 37 312 3.2 9.7 0.00 0.00 0.00 43 1011.0
20260905192704 37 269 3.2 4.8 0.00 0.00 0.00 44 1011.0
20260905192204 37 248 1.6 4.8 0.00 0.00 0.00 46 1011.0
20260905191704 37 299 1.6 3.2 0.00 0.00 0.00 44 1011.0
20260905190704 37 259 4.8 11.3 0.00 0.00 0.00 45 1011.2
20260905190204 37 283 4.8 8.0 0.00 0.00 0.00 45 1011.2
20260905185704 37 3 1.6 4.8 0.00 0.00 0.00 46 1011.2
20260905185204 37 333 1.6 8.0 0.00 0.00 0.00 45 1011.3
20260905184704 37 32 1.6 4.8 0.00 0.00 0.00 44 1011.4
20260905184205 37 57 1.6 9.7 0.00 0.00 0.00 43 1011.4
20260905183204 37 83 3.2 4.8 0.00 0.00 0.00 46 1011.5
20260905182704 37 283 3.2 4.8 0.00 0.00 0.00 48 1011.6
20260905182204 37 283 4.8 9.7 0.00 0.00 0.00 46 1011.7
20260905181704 37 242 3.2 4.8 0.00 0.00 0.00 46 1011.7
20260905181204 37 269 3.2 9.7 0.00 0.00 0.00 47 1011.7
20260905180703 37 306 4.8 14.5 0.00 0.00 0.00 45 1011.8
20260905180204 36 306 3.2 8.0 0.00 0.00 0.00 47 1011.8
20260905175705 36 272 3.2 12.9 0.00 0.00 0.00 48 1011.9
20260905175204 36 249 3.2 8.0 0.00 0.00 0.00 48 1011.9
20260905174704 36 309 3.2 4.8 0.00 0.00 0.00 48 1012.0
20260905174204 36 28 3.2 14.5 0.00 0.00 0.00 49 1012.0
20260905173704 36 315 4.8 11.3 0.00 0.00 0.00 48 1012.0
20260905172704 36 286 3.2 9.7 0.00 0.00 0.00 49 1012.1
20260905172204 36 294 3.2 4.8 0.00 0.00 0.00 51 1012.2
20260905171705 36 326 3.2 8.0 0.00 0.00 0.00 50 1012.2
20260905171204 36 298 6.4 14.5 0.00 0.00 0.00 50 1012.3
20260905170704 36 291 1.6 12.9 0.00 0.00 0.00 50 1012.3
20260905170204 35 272 4.8 11.3 0.00 0.00 0.00 50 1012.4
20260905165704 35 231 3.2 8.0 0.00 0.00 0.00 48 1012.5
20260905165204 35 325 3.2 11.3 0.00 0.00 0.00 50 1012.6
20260905164704 35 310 4.8 11.3 0.00 0.00 0.00 51 1012.6
20260905164204 35 298 4.8 12.9 0.00 0.00 0.00 53 1012.7
20260905163704 35 306 4.8 11.3 0.00 0.00 0.00 53 1012.8
20260905163204 35 281 4.8 12.9 0.00 0.00 0.00 54 1012.8
20260905162704 35 285 3.2 12.9 0.00 0.00 0.00 54 1012.8
20260905162204 35 278 4.8 14.5 0.00 0.00 0.00 54 1012.9
20260905161704 34 321 4.8 11.3 0.00 0.00 0.00 56 1012.9
20260905161204 34 273 6.4 14.5 0.00 0.00 0.00 56 1012.8
20260905160704 34 285 8.0 14.5 0.00 0.00 0.00 55 1012.8
20260905155704 34 261 1.6 11.3 0.00 0.00 0.00 60 1012.8
20260905155204 34 310 4.8 9.7 0.00 0.00 0.00 58 1012.9
20260905154704 33 275 4.8 11.3 0.00 0.00 0.00 60 1012.9
20260905154205 33 285 4.8 12.9 0.00 0.00 0.00 58 1012.9
20260905153204 33 309 8.0 12.9 0.00 0.00 0.00 58 1013.0
20260905152704 33 330 8.0 19.3 0.00 0.00 0.00 58 1013.0
20260905152204 33 292 4.8 11.3 0.00 0.00 0.00 62 1013.0
20260905151704 33 326 3.2 4.8 0.00 0.00 0.00 63 1012.9
20260905150705 32 333 4.8 8.0 0.00 0.00 0.00 63 1013.0
20260905150204 32 274 4.8 9.7 0.00 0.00 0.00 64 1013.0
20260905145705 32 304 4.8 9.7 0.00 0.00 0.00 63 1013.0
20260905145204 31 309 3.2 4.8 0.00 0.00 0.00 64 1012.9
20260905144705 31 303 1.6 4.8 0.00 0.00 0.00 66 1012.9
20260905144204 31 311 3.2 8.0 0.00 0.00 0.00 66 1012.9
20260905143204 30 268 3.2 4.8 0.00 0.00 0.00 70 1012.9
20260905142704 30 269 1.6 4.8 0.00 0.00 0.00 71 1013.0
20260905142203 30 263 1.6 4.8 0.00 0.00 0.00 71 1013.0
20260905141705 30 285 3.2 9.7 0.00 0.00 0.00 71 1013.1
20260905141204 30 301 3.2 8.0 0.00 0.00 0.00 71 1013.1
20260905140704 29 290 3.2 4.8 0.00 0.00 0.00 74 1013.1
20260905140204 29 280 1.6 4.8 0.00 0.00 0.00 76 1013.2
20260905135704 28 301 0.0 1.6 0.00 0.00 0.00 77 1013.2
20260905135204 28 301 1.6 3.2 0.00 0.00 0.00 78 1013.2